| time (UTC) | temp F | wind direction | speed MPH | gust MPH | rain 1hr in | rain 24hr in | rain mn in | humidity % | barometer mb |
| 20260905200050 | 94 | 202 | 6.0 | 16.0 | 0.00 | 0.00 | 0.00 | 61 | 1009.8 |
| 20260905194549 | 94 | 153 | 6.0 | 13.0 | 0.00 | 0.00 | 0.00 | 62 | 1010.1 |
| 20260905193046 | 93 | 165 | 6.0 | 14.0 | 0.00 | 0.00 | 0.00 | 63 | 1010.3 |
| 20260905191546 | 93 | 181 | 5.0 | 16.0 | 0.00 | 0.00 | 0.00 | 65 | 1010.4 |
| 20260905190045 | 93 | 118 | 5.0 | 14.0 | 0.00 | 0.00 | 0.00 | 67 | 1010.6 |
| 20260905184553 | 94 | 93 | 4.0 | 13.0 | 0.00 | 0.00 | 0.00 | 65 | 1010.8 |
| 20260905183040 | 92 | 180 | 5.0 | 14.0 | 0.00 | 0.00 | 0.00 | 67 | 1010.9 |
| 20260905181539 | 92 | 105 | 6.0 | 12.0 | 0.00 | 0.00 | 0.00 | 68 | 1011.1 |
| 20260905180043 | 91 | 155 | 6.0 | 15.0 | 0.00 | 0.00 | 0.00 | 67 | 1011.1 |
| 20260905174539 | 92 | 128 | 6.0 | 14.0 | 0.00 | 0.00 | 0.00 | 64 | 1011.3 |
| 20260905173058 | 94 | 126 | 9.0 | 16.0 | 0.00 | 0.00 | 0.00 | 61 | 1011.4 |
| 20260905171535 | 94 | 142 | 4.0 | 17.0 | 0.00 | 0.00 | 0.00 | 63 | 1011.5 |
| 20260905170033 | 94 | 142 | 9.0 | 18.0 | 0.00 | 0.00 | 0.00 | 60 | 1011.7 |
| 20260905164532 | 93 | 161 | 9.0 | 15.0 | 0.00 | 0.00 | 0.00 | 63 | 1011.7 |
| 20260905163030 | 93 | 126 | 7.0 | 18.0 | 0.00 | 0.00 | 0.00 | 62 | 1011.9 |
| 20260905161529 | 94 | 176 | 7.0 | 14.0 | 0.00 | 0.00 | 0.00 | 62 | 1011.9 |
| 20260905160025 | 93 | 201 | 8.0 | 16.0 | 0.00 | 0.00 | 0.00 | 63 | 1011.8 |
| 20260905154521 | 92 | 151 | 4.0 | 12.0 | 0.00 | 0.00 | 0.00 | 65 | 1011.9 |
| 20260905153020 | 91 | 167 | 6.0 | 10.0 | 0.00 | 0.00 | 0.00 | 68 | 1011.9 |
| 20260905151519 | 90 | 149 | 4.0 | 11.0 | 0.00 | 0.00 | 0.00 | 68 | 1012.0 |
| 20260905150010 | 89 | 206 | 4.0 | 10.0 | 0.00 | 0.00 | 0.00 | 70 | 1011.8 |
| 20260905144521 | 89 | 211 | 4.0 | 10.0 | 0.00 | 0.00 | 0.00 | 70 | 1011.9 |
| 20260905143006 | 89 | 178 | 6.0 | 12.0 | 0.00 | 0.00 | 0.00 | 72 | 1011.8 |
| 20260905141502 | 88 | 186 | 5.0 | 10.0 | 0.00 | 0.00 | 0.00 | 75 | 1011.7 |
| 20260905140100 | 87 | 156 | 2.0 | 7.0 | 0.00 | 0.00 | 0.00 | 78 | 1011.6 |
| 20260905134557 | 86 | 198 | 3.0 | 8.0 | 0.00 | 0.00 | 0.00 | 80 | 1011.3 |
| 20260905133101 | 84 | 145 | 0.0 | 5.0 | 0.00 | 0.00 | 0.00 | 84 | 1011.2 |
| 20260905131553 | 83 | 177 | 3.0 | 6.0 | 0.00 | 0.00 | 0.00 | 86 | 1011.1 |
| 20260905130049 | 82 | 130 | 0.0 | 0.0 | 0.00 | 0.00 | 0.00 | 87 | 1010.8 |
| 20260905124550 | 81 | 153 | 0.0 | 0.0 | 0.00 | 0.00 | 0.00 | 87 | 1010.6 |
| 20260905123102 | 81 | 153 | 0.0 | 0.0 | 0.00 | 0.00 | 0.00 | 87 | 1010.5 |
| 20260905121553 | 81 | 153 | 0.0 | 0.0 | 0.00 | 0.00 | 0.00 | 87 | 1010.4 |
| 20260905120046 | 81 | 153 | 0.0 | 0.0 | 0.00 | 0.00 | 0.00 | 87 | 1010.3 |
| 20260905114544 | 81 | 153 | 0.0 | 0.0 | 0.00 | 0.00 | 0.00 | 86 | 1010.4 |
| 20260905113044 | 81 | 153 | 0.0 | 0.0 | 0.00 | 0.00 | 0.00 | 87 | 1010.2 |
| 20260905111543 | 82 | 153 | 0.0 | 0.0 | 0.00 | 0.00 | 0.00 | 86 | 1010.3 |
| 20260905110043 | 82 | 153 | 0.0 | 0.0 | 0.00 | 0.00 | 0.00 | 86 | 1010.3 |
| 20260905104545 | 82 | 153 | 0.0 | 0.0 | 0.00 | 0.00 | 0.00 | 86 | 1010.2 |
| 20260905103042 | 82 | 153 | 0.0 | 0.0 | 0.00 | 0.00 | 0.00 | 86 | 1010.2 |
| 20260905101554 | 82 | 211 | 0.0 | 0.0 | 0.00 | 0.00 | 0.00 | 86 | 1010.1 |
| 20260905100111 | 82 | 211 | 0.0 | 0.0 | 0.00 | 0.00 | 0.00 | 86 | 1010.2 |
| 20260905094547 | 82 | 207 | 0.0 | 0.0 | 0.00 | 0.00 | 0.00 | 86 | 1010.1 |
| 20260905093038 | 82 | 217 | 0.0 | 0.0 | 0.00 | 0.00 | 0.00 | 86 | 1010.1 |
| 20260905091550 | 83 | 195 | 0.0 | 0.0 | 0.00 | 0.00 | 0.00 | 85 | 1010.2 |
| 20260905090035 | 83 | 209 | 0.0 | 2.0 | 0.00 | 0.00 | 0.00 | 85 | 1010.2 |
| 20260905084540 | 83 | 200 | 1.0 | 4.0 | 0.00 | 0.00 | 0.00 | 85 | 1010.2 |
| 20260905083040 | 83 | 205 | 0.0 | 5.0 | 0.00 | 0.00 | 0.00 | 84 | 1010.2 |
| 20260905081530 | 83 | 168 | 0.0 | 6.0 | 0.00 | 0.00 | 0.00 | 84 | 1010.5 |
| 20260905080029 | 83 | 178 | 3.0 | 7.0 | 0.00 | 0.00 | 0.00 | 84 | 1010.5 |
| 20260905074529 | 84 | 184 | 2.0 | 7.0 | 0.00 | 0.00 | 0.00 | 84 | 1010.6 |
| 20260905073026 | 84 | 196 | 1.0 | 6.0 | 0.00 | 0.00 | 0.00 | 83 | 1010.8 |
| 20260905071525 | 84 | 163 | 3.0 | 6.0 | 0.00 | 0.00 | 0.00 | 83 | 1010.8 |
| 20260905070024 | 84 | 187 | 3.0 | 7.0 | 0.00 | 0.00 | 0.00 | 83 | 1010.9 |
| 20260905064522 | 84 | 204 | 2.0 | 7.0 | 0.00 | 0.00 | 0.00 | 83 | 1011.1 |
| 20260905063021 | 84 | 175 | 3.0 | 9.0 | 0.00 | 0.00 | 0.00 | 83 | 1011.3 |
| 20260905061519 | 84 | 184 | 2.0 | 8.0 | 0.00 | 0.00 | 0.00 | 82 | 1011.3 |
| 20260905060024 | 84 | 153 | 3.0 | 7.0 | 0.00 | 0.00 | 0.00 | 82 | 1011.2 |
| 20260905054541 | 84 | 148 | 2.0 | 5.0 | 0.00 | 0.00 | 0.00 | 82 | 1011.3 |
| 20260905053015 | 85 | 176 | 4.0 | 9.0 | 0.00 | 0.00 | 0.00 | 82 | 1011.1 |
| 20260905051514 | 85 | 171 | 4.0 | 10.0 | 0.00 | 0.00 | 0.00 | 82 | 1011.1 |
| 20260905050012 | 85 | 154 | 6.0 | 10.0 | 0.00 | 0.00 | 0.00 | 82 | 1011.2 |
| 20260905044512 | 85 | 190 | 4.0 | 10.0 | 0.00 | 0.00 | 0.00 | 83 | 1011.3 |
| 20260905043011 | 85 | 128 | 3.0 | 10.0 | 0.00 | 0.00 | 0.00 | 83 | 1011.2 |
| 20260905041512 | 85 | 171 | 2.0 | 9.0 | 0.00 | 0.00 | 0.00 | 83 | 1011.3 |
| 20260905040010 | 85 | 171 | 5.0 | 9.0 | 0.00 | 0.00 | 0.00 | 82 | 1011.4 |
| 20260905034509 | 85 | 182 | 4.0 | 8.0 | 0.00 | 0.00 | 0.00 | 82 | 1011.3 |
| 20260905033014 | 85 | 153 | 5.0 | 9.0 | 0.00 | 0.00 | 0.00 | 81 | 1011.4 |
| 20260905031508 | 85 | 146 | 2.0 | 8.0 | 0.00 | 0.00 | 0.00 | 81 | 1011.4 |
| 20260905030011 | 86 | 146 | 4.0 | 7.0 | 0.00 | 0.00 | 0.00 | 81 | 1011.2 |
| 20260905024506 | 86 | 175 | 5.0 | 9.0 | 0.00 | 0.00 | 0.00 | 81 | 1010.9 |
| 20260905023007 | 86 | 165 | 3.0 | 11.0 | 0.00 | 0.00 | 0.00 | 80 | 1010.8 |
| 20260905021507 | 86 | 153 | 6.0 | 11.0 | 0.00 | 0.00 | 0.00 | 80 | 1010.6 |
| 20260905020006 | 86 | 128 | 3.0 | 9.0 | 0.00 | 0.00 | 0.00 | 80 | 1010.6 |
| 20260905014505 | 86 | 130 | 6.0 | 10.0 | 0.00 | 0.00 | 0.00 | 80 | 1010.5 |
| 20260905013011 | 86 | 148 | 5.0 | 10.0 | 0.00 | 0.00 | 0.00 | 79 | 1010.3 |
| 20260905011506 | 87 | 115 | 4.0 | 12.0 | 0.00 | 0.00 | 0.00 | 79 | 1010.2 |
| 20260905010008 | 87 | 182 | 5.0 | 12.0 | 0.00 | 0.00 | 0.00 | 78 | 1010.1 |
| 20260905004502 | 87 | 162 | 6.0 | 16.0 | 0.00 | 0.00 | 0.00 | 77 | 1010.1 |
| 20260905003003 | 87 | 184 | 6.0 | 15.0 | 0.00 | 0.00 | 0.00 | 76 | 1010.0 |
| 20260905001502 | 88 | 143 | 8.0 | 15.0 | 0.00 | 0.00 | 0.00 | 75 | 1010.0 |
| 20260905000000 | 88 | 134 | 8.0 | 18.0 | 0.00 | 0.00 | 0.00 | 74 | 1009.9 |
| 20260904234501 | 89 | 112 | 8.0 | 17.0 | 0.00 | 0.00 | 0.00 | 72 | 1009.9 |
| 20260904233107 | 89 | 152 | 9.0 | 17.0 | 0.00 | 0.00 | 0.00 | 71 | 1009.9 |
| 20260904231607 | 90 | 157 | 9.0 | 15.0 | 0.00 | 0.00 | 0.00 | 70 | 1009.9 |
| 20260904230059 | 90 | 157 | 9.0 | 21.0 | 0.00 | 0.00 | 0.00 | 69 | 1009.9 |
| 20260904224600 | 90 | 124 | 8.0 | 15.0 | 0.00 | 0.00 | 0.00 | 70 | 1009.9 |
| 20260904223058 | 91 | 126 | 7.0 | 16.0 | 0.00 | 0.00 | 0.00 | 70 | 1009.8 |
| 20260904221605 | 91 | 178 | 7.0 | 18.0 | 0.00 | 0.00 | 0.00 | 69 | 1009.8 |
| 20260904220101 | 91 | 122 | 7.0 | 18.0 | 0.00 | 0.00 | 0.00 | 68 | 1009.7 |
| 20260904214559 | 92 | 155 | 8.0 | 14.0 | 0.00 | 0.00 | 0.00 | 68 | 1009.7 |
| 20260904213055 | 92 | 200 | 7.0 | 17.0 | 0.00 | 0.00 | 0.00 | 69 | 1009.8 |
| 20260904211558 | 93 | 128 | 7.0 | 15.0 | 0.00 | 0.00 | 0.00 | 65 | 1009.9 |
| 20260904210056 | 92 | 111 | 7.0 | 15.0 | 0.00 | 0.00 | 0.00 | 68 | 1010.0 |
| 20260904204553 | 93 | 86 | 7.0 | 17.0 | 0.00 | 0.00 | 0.00 | 67 | 1010.0 |
| 20260904203057 | 93 | 175 | 6.0 | 16.0 | 0.00 | 0.00 | 0.00 | 66 | 1010.1 |
| 20260904201555 | 93 | 145 | 7.0 | 16.0 | 0.00 | 0.00 | 0.00 | 66 | 1010.0 |
| 20260904200109 | 93 | 128 | 6.0 | 16.0 | 0.00 | 0.00 | 0.00 | 67 | 1010.1 |